Dewpoint
68 68 68 68 67 67 68 66 65 67 67 66 67 67 66 65 65 65 65 65 66 66 67 67 67 67 67 67 67 67 66 66 63 64 65 63 60 60 60 60 60 60 60
68 67 68 68 66 66 66 66 65 66 66 65 65 66 66 64 64 63 63 62 62 62 62 63 64 66 65 65 67 66 65 66 64 63 64 60 59 59 58 58 59 59 59
67 67 68 67 66 65 65 66 65 65 65 66 65 65 64 64 64 63 62 61 61 61 61 61 62 63 63 63 64 64 64 64 63 62 62 62 59 58 57 57 57 57 58
66 67 68 67 66 66 66 65 64 65 65 64 64 63 62 62 63 63 62 61 60 60 59 59 59 60 62 63 63 63 63 62 62 61 60 60 60 59 58 55 53 55 54
65 67 68 68 66 66 65 64 63 65 64 63 62 61 59 57 58 62 62 61 59 58 58 57 58 60 60 61 60 61 61 60 59 58 58 58 58 58 56 56 53 53 54
65 67 68 67 67 66 65 63 64 63 63 62 61 60 58 54 56 59 62 61 62 59 58 57 56 56 57 57 57 58 60 58 56 56 57 56 57 56 56 54 53 53 52
67 68 68 67 67 66 66 64 63 62 63 62 60 59 55 52 54 55 60 58 57 56 57 55 53 53 53 49 51 51 52 57 59 57 56 57 57 58 56 55 56 52 52
67 68 69 68 67 66 65 64 63 62 62 61 59 57 53 51 53 53 58 56 54 52 53 56 53 51 53 47 44 41 40 43 50 52 51 49 49 55 56 55 52 51 53
68 67 68 68 67 66 64 63 63 62 61 61 60 58 53 49 50 51 56 55 53 49 48 50 50 49 51 53 48 45 42 40 46 49 50 50 51 52 54 55 52 51 49
63 63 64 66 67 65 65 63 63 62 62 59 57 56 55 49 48 49 55 55 52 50 49 46 49 46 48 51 53 51 49 47 43 44 44 45 48 49 52 49 49 51 52
60 59 60 62 65 65 65 64 63 62 60 58 56 54 51 49 47 47 49 54 54 51 48 46 43 45 44 44 45 44 43 42 43 47 48 49 43 44 47 48 47 46 44
57 57 56 57 59 61 63 63 62 60 58 55 52 51 50 49 47 46 46 49 51 47 46 45 40 40 40 41 37 39 41 42 38 42 41 38 40 42 43 48 47 46 47
57 55 54 55 56 56 57 58 58 56 55 53 52 51 50 49 48 44 44 45 46 41 38 42 41 39 38 41 40 41 44 39 41 39 38 38 35 37 45 48 48 47 46
53 52 52 52 51 52 53 54 54 54 53 52 51 51 51 52 51 49 43 40 44 39 42 38 43 43 44 44 37 40 35 35 39 37 36 37 40 37 36 40 46 47 45
53 51 50 50 49 48 47 49 51 49 51 52 52 52 51 51 47 41 40 41 42 42 43 42 38 38 36 41 41 41 38 41 38 38 35 35 36 37 37 36 35 38 43
52 51 50 50 49 49 48 46 44 44 43 42 42 47 44 42 40 39 40 39 41 39 39 41 42 43 41 42 40 39 39 39 37 38 36 33 37 29 29 31 35 35 35
52 51 51 50 50 50 49 46 43 42 41 39 38 39 42 40 40 40 38 38 38 36 37 42 42 38 38 37 38 38 36 34 35 39 36 36 33 35 31 32 35 35 34
54 52 53 53 52 51 50 48 45 43 42 40 39 38 37 37 38 38 37 37 38 37 33 36 41 39 38 37 39 38 39 38 41 36 36 38 37 35 34 36 33 30 26
55 54 54 53 53 51 51 48 47 45 44 42 38 37 35 36 36 36 36 35 37 39 41 42 40 39 37 40 39 38 36 37 35 36 35 35 37 36 33 35 35 33 31
51 49 43 37 37 40 41 41 44 44 43 41 39 37 36 35 34 35 35 36 38 40 39 37 41 40 41 41 39 40 38 38 37 37 36 36 36 38 33 34 35 33 29
39 37 45 41 40 40 41 41 40 42 43 42 41 39 38 35 35 36 37 38 38 38 38 35 35 36 40 42 42 40 38 38 37 40 40 39 39 38 35 36 34 34 33
40 39 39 40 42 43 42 42 41 42 40 40 40 38 38 36 37 35 39 38 39 40 36 36 34 35 34 34 39 42 39 38 38 37 38 39 37 36 36 36 35 34 34
40 42 44 45 42 43 46 46 45 45 44 42 38 35 35 35 34 33 33 34 37 38 39 39 36 34 34 36 40 41 38 37 38 38 39 37 36 36 36 35 35 34 32
47 47 46 46 44 45 44 42 43 44 42 44 38 35 33 33 36 38 37 37 40 42 43 42 41 41 42 41 40 39 37 36 37 36 36 36 34 33 32 33 34 34 33
46 45 44 44 45 44 45 45 45 43 42 43 44 43 44 45 45 45 45 46 45 47 50 49 47 47 44 41 39 37 35 33 31 37 38 36 34 33 33 33 33 33 33
45 46 45 44 44 44 42 43 43 45 41 41 42 44 43 43 44 43 43 43 44 45 42 39 37 36 36 35 33 33 32 32 36 32 32 36 37 36 35 33 33 33 33
Lifted_Index
-5 -5 -5 -4 -2 -2 -1 -1 -0 -0 0 1 1 2 2 2 2 1 1 1 1 0 0 0 -0 -0 -0 -0 -1 -1 -1 -1 -1 -0 0 1 1 2 3 3 3 3 3
-5 -5 -5 -4 -2 -1 -1 -1 -0 0 0 1 2 2 2 2 2 2 2 2 2 2 2 1 1 1 0 0 -0 -0 -0 -0 -0 -0 1 1 2 2 3 3 3 3 4
-5 -5 -4 -3 -2 -1 -1 -1 0 0 1 1 2 3 3 3 3 3 3 3 3 3 3 3 3 2 2 1 1 1 1 1 1 1 1 2 2 3 3 3 4 4 4
-5 -5 -4 -3 -2 -2 -1 -0 0 1 1 2 3 3 4 4 4 4 4 4 4 4 4 4 4 4 3 3 3 2 2 2 2 2 3 3 3 3 4 4 4 4 5
-5 -5 -4 -4 -3 -2 -1 -0 0 1 2 3 3 4 4 4 4 4 4 4 5 5 5 5 5 5 5 4 4 4 4 4 4 3 3 3 4 4 4 5 5 5 5
-5 -5 -5 -4 -3 -2 -1 -0 1 1 2 3 4 4 5 5 5 5 5 5 5 5 6 6 6 6 6 5 5 4 4 4 5 4 4 4 4 5 5 5 6 6 6
-5 -5 -5 -4 -4 -3 -1 -0 1 2 2 3 5 5 5 5 5 5 6 6 6 6 6 6 7 7 7 6 6 5 5 5 6 6 6 5 5 5 6 6 6 6 6
-5 -5 -5 -4 -4 -3 -2 -1 0 1 3 4 5 5 6 6 6 6 6 6 6 6 6 7 7 7 7 7 7 6 6 7 7 7 7 7 6 6 6 6 6 6 7
-5 -5 -5 -4 -4 -3 -3 -2 -1 1 2 3 4 5 6 6 6 6 6 6 7 7 7 7 8 7 7 7 7 7 7 8 9 9 10 9 9 9 8 7 7 6 6
-5 -5 -5 -5 -4 -4 -3 -2 -1 -0 1 2 3 4 5 6 6 6 6 6 6 7 7 7 8 8 7 7 7 7 7 8 10 11 11 12 12 12 10 8 7 6 6
-4 -4 -4 -4 -4 -4 -3 -2 -1 -0 1 1 2 3 4 5 6 6 6 6 6 7 7 7 8 8 8 8 7 8 9 10 11 11 11 12 13 13 12 10 9 8 7
-3 -3 -2 -2 -3 -2 -2 -1 -1 0 1 1 2 2 3 4 5 6 6 6 6 6 7 7 8 9 10 10 9 10 11 11 12 12 12 12 12 12 12 11 10 10 9
-2 -1 -1 -0 -0 -0 -0 0 0 1 1 1 2 2 3 4 5 5 6 6 6 7 7 8 10 11 12 12 12 12 12 12 12 12 12 12 12 12 11 10 10 9 9
-0 0 1 1 1 1 1 1 1 1 2 2 2 2 3 4 4 5 6 6 7 7 9 10 11 12 12 13 12 12 13 12 12 12 12 12 12 12 11 11 10 9 9
2 2 2 2 2 2 2 2 2 2 2 3 3 3 4 4 5 5 6 6 7 9 10 11 11 11 11 11 11 12 12 12 12 12 12 12 12 11 11 11 11 10 9
3 3 3 3 3 3 3 3 3 3 3 4 4 4 5 5 6 6 6 7 9 10 11 10 10 10 11 11 11 11 11 11 11 11 12 12 12 11 11 11 11 11 10
3 4 4 4 4 5 5 5 5 6 6 6 7 7 7 7 7 8 9 10 11 11 11 10 10 10 10 10 11 11 11 11 11 11 11 11 11 11 11 10 10 10 10
4 4 5 5 6 7 7 8 8 9 9 10 10 10 10 11 11 12 12 13 12 11 10 10 10 10 10 10 10 10 11 11 11 11 11 10 10 10 10 10 10 10 9
5 6 6 7 7 7 8 8 9 10 11 11 11 12 12 13 13 13 13 12 11 10 9 9 9 9 10 10 10 10 10 10 11 10 10 10 9 9 9 9 9 9 9
6 7 8 8 8 8 8 8 9 9 9 10 10 10 11 11 11 11 11 10 9 9 9 9 9 9 9 9 9 10 10 10 10 10 10 9 9 8 8 8 9 9 9
8 8 8 8 8 8 8 8 8 8 8 8 8 8 8 9 9 9 9 9 8 8 9 9 9 9 9 9 9 9 10 10 10 10 9 9 8 8 8 8 8 8 9
8 8 8 7 7 7 7 7 7 7 6 6 7 7 7 7 8 8 8 8 8 8 8 8 8 8 9 9 9 9 9 9 9 9 9 8 8 8 8 8 8 8 8
6 6 6 6 6 5 5 5 5 5 5 5 6 6 6 6 6 7 7 7 7 7 7 7 7 7 8 8 8 8 8 8 8 8 8 8 8 8 8 8 8 8 8
4 4 4 4 4 4 4 4 4 4 4 4 4 5 5 5 5 5 5 5 6 6 6 6 6 6 6 6 7 7 7 7 7 7 8 7 7 7 8 8 8 8 8
3 3 4 4 4 4 4 4 4 4 4 4 4 4 4 4 4 4 4 5 5 5 5 5 5 5 5 5 5 5 5 5 5 6 6 6 6 6 6 7 7 8 8
3 3 3 4 4 4 4 4 4 4 4 5 4 4 4 4 4 4 4 4 4 4 4 4 4 4 4 4 4 4 4 4 4 4 5 5 5 5 5 6 6 7 7